Fort Leonard Wood, MO

11:25 PM CDT on September 25, 2017 (GMT -0500)
Waynesville Regional At Forney Field

Weather History for KTBN - January, 2012

Change the Weather History Date:

Monday, January 2, 2012

  Actual Average Record
Temperature  
Mean Temperature 28 °F -  
Max Temperature 35 °F 40 °F 69 °F (1997)
Min Temperature 20 °F 27 °F -2 °F (2001)
Degree Days  
Heating Degree Days 37    
Moisture  
Dew Point 5 °F    
Average Humidity 37    
Maximum Humidity 55    
Minimum Humidity 21    
Precipitation  
Precipitation 0.00 in - - ()
Sea Level Pressure  
Sea Level Pressure 30.49 in    
Wind  
Wind Speed 12 mph (NW)    
Max Wind Speed 20 mph    
Max Gust Speed 33 mph    
Visibility 10 miles    
Events      
Averages and records for this station are not official NWS values.
T = Trace of Precipitation, MM = Missing Value Source: NWS Daily Summary

Daily Weather History Graph

Daily Weather History Graph

Search for Another Location

Airport or City:

Trip Planner

Search our weather history database for the weather conditions in past years. The results will help you decide how hot, cold, wet, or windy it might be!

Date:

Astronomy

Jan. 02, 2012 Rise Set
Actual Time 7:24 AM CST 5:01 PM CST
Civil Twilight 6:54 AM CST 5:30 PM CST
Nautical Twilight 6:21 AM CST 6:03 PM CST
Astronomical Twilight 5:50 AM CST 6:34 PM CST
Moon 12:15 PM CST (1/2) 1:20 AM CST (1/2)
Length of Visible Light 10h 35m
Length of Day
9h 37m
Waxing Gibbous, 64% of the Moon is Illuminated
Jan 2
Waxing Gibbous
Jan 9
Full
Jan 16
Last Quarter
Jan 23
New
Jan 30
First Quarter

Hourly Weather History & Observations

Time (CST) Temp. Windchill Dew Point Humidity Pressure Visibility Wind Dir Wind Speed Gust Speed Precip Events Conditions
12:55 AM 31.3 °F 21.6 °F 10.2 °F 42% 30.44 in 10.0 mi NW 12.7 mph - N/A   Clear
1:55 AM 30.0 °F 20.5 °F 11.3 °F 46% 30.46 in 10.0 mi NW 11.5 mph 21.9 mph N/A   Clear
2:55 AM 28.8 °F 19.0 °F 11.5 °F 49% 30.46 in 10.0 mi NW 11.5 mph - N/A   Clear
3:55 AM 27.7 °F 18.8 °F 11.8 °F 51% 30.46 in 10.0 mi WNW 9.2 mph - N/A   Clear
4:55 AM 27.0 °F 17.3 °F 11.7 °F 53% 30.46 in 10.0 mi WNW 10.4 mph - N/A   Clear
6:55 AM 25.7 °F 15.7 °F 11.7 °F 55% 30.47 in 10.0 mi WNW 10.4 mph 17.3 mph N/A   Clear
7:55 AM 25.7 °F 14.6 °F 10.0 °F 52% 30.49 in 10.0 mi WNW 12.7 mph 19.6 mph N/A   Clear
8:55 AM 27.7 °F 15.2 °F 7.0 °F 42% 30.53 in 10.0 mi WNW 17.3 mph 25.3 mph N/A   Clear
9:55 AM 29.8 °F 18.4 °F 4.5 °F 34% 30.54 in 10.0 mi WNW 16.1 mph 25.3 mph N/A   Clear
10:55 AM 31.3 °F 20.3 °F 1.9 °F 29% 30.53 in 10.0 mi WNW 16.1 mph 31.1 mph N/A   Clear
11:55 AM 33.1 °F 21.9 °F 0.3 °F 25% 30.49 in 10.0 mi WNW 18.4 mph 33.4 mph N/A   Clear
12:55 PM 35.1 °F 24.1 °F -1.8 °F 21% 30.46 in 10.0 mi WNW 19.6 mph 31.1 mph N/A   Clear
1:55 PM 35.4 °F 26.0 °F -1.8 °F 21% 30.45 in 10.0 mi WNW 15.0 mph 24.2 mph N/A   Clear
2:55 PM 35.2 °F 24.7 °F -0.9 °F 22% 30.45 in 10.0 mi NW 18.4 mph 33.4 mph N/A   Clear
3:55 PM 34.3 °F 24.6 °F -0.8 °F 23% 30.47 in 10.0 mi WNW 15.0 mph 29.9 mph N/A   Clear
4:55 PM 31.8 °F 21.4 °F -1.1 °F 24% 30.49 in 10.0 mi NW 15.0 mph 27.6 mph N/A   Clear
5:55 PM 29.8 °F 22.2 °F -0.2 °F 28% 30.51 in 10.0 mi NW 8.1 mph - N/A   Clear
6:55 PM 28.2 °F 18.9 °F 0.7 °F 31% 30.52 in 10.0 mi NW 10.4 mph 18.4 mph N/A   Clear
7:55 PM 27.0 °F 18.0 °F 1.6 °F 34% 30.53 in 10.0 mi NW 9.2 mph - N/A   Clear
8:55 PM 25.9 °F 17.4 °F 2.5 °F 37% 30.54 in 10.0 mi NW 8.1 mph - N/A   Clear
9:55 PM 24.4 °F 15.6 °F 3.6 °F 41% 30.53 in 10.0 mi NW 8.1 mph - N/A   Clear
10:55 PM 21.7 °F 14.3 °F 5.0 °F 49% 30.53 in 10.0 mi North 5.8 mph - N/A   Clear
11:55 PM 20.7 °F 13.0 °F 5.4 °F 52% 30.53 in 10.0 mi NW 5.8 mph - N/A   Clear